Tracking 19281 objects as of 16-Nov-2018
HD Live streaming from Space Station
objects crossing your sky now

AMOS 2

Track AMOS 2 now!
AMOS 2 is classified as:


NORAD ID: 28132
Int'l Code: 2003-059A
Perigee: 36,031.9 km
Apogee: 36,050.0 km
Inclination: 1.8 °
Period: 1,448.7 minutes
Semi major axis: 42411 km
RCS: 36.2156 m2 (large)
Launch date: December 27, 2003
Source: Israel (ISRA)
Launch site: TYURATAM MISSILE AND SPACE COMPLEX (TTMTR)

Ku-band communications, Europe, Middle East, East Coast of USA.
aabbcc
Your satellite tracking list
Your tracking list is empty




NASA's NSSDC Master Catalog

Two Line Element Set (TLE):
1 28132U 03059A   18319.50764324 -.00000165 +00000-0 +00000-0 0  9999
2 28132 001.8468 087.7252 0002137 146.7548 292.8964 00.99396328054507
Source of the keplerian elements: AFSPC